Regional Weather Roundup
Issued by NWS

Home | Current Version | Previous Version | Graphics & Text | Print | Product List | Glossary On
Versions: 1 2 3 4 5 6 7 8 9 10 11 12 13 14 15 16 17 18 19 20 21 22 23 24 25 26 27 28 29 30 31 32 33 34 35 36 37 38 39 40 41 42 43 44 45 46 47 48 49 50
000
ASUS45 KCYS 180810
RWRWY

WYOMING REGIONAL WEATHER ROUNDUP
NATIONAL WEATHER SERVICE CHEYENNE WY
200 AM MDT SAT APR 18 2015

NOTE:  "FAIR" INDICATES FEW OR NO CLOUDS BELOW 12,000 FEET
WITH NO SIGNIFICANT WEATHER AND/OR OBSTRUCTIONS TO VISIBILITY.

WYZ001-180900-
YELLOWSTONE NATIONAL PARK

CITY           SKY/WX    TMP DP  RH WIND       PRES   REMARKS
LK YELLOWSTONE   N/A     26  20  77 CALM      30.15F
W YELLOWSTONE  NOT AVBL

$$
WYZ002>013-054>058-071-098>099-180900-
NORTHERN WYOMING

CITY           SKY/WX    TMP DP  RH WIND       PRES   REMARKS
JACKSON        FAIR      36  25  64 N12       30.09S WCI  27
CODY           FAIR      43  30  61 SW8       30.03F
GREYBULL       FAIR      42  27  55 SE6       30.02F
WORLAND        FAIR      40  34  79 S7        30.03F
SHERIDAN       FAIR      36  30  79 CALM      30.01F
BUFFALO        FAIR      43  35  73 S12       30.04F
GILLETTE       FAIR      42  39  89 SW10      30.05F
HULETT         CLOUDY    41  36  81 CALM      30.08S
NEWCASTLE      CLOUDY    43  43 100 CALM      30.06F

$$
WYZ014>020-022>026-101>103-180900-
CENTRAL WYOMING

CITY           SKY/WX    TMP DP  RH WIND       PRES   REMARKS
BIG PINEY      FAIR      27  24  89 E5        30.10S WCI  22
PINEDALE       FAIR      27  25  93 W7        30.11S WCI  19
DUBOIS         FAIR      30  23  74 W9        30.10F WCI  22
LANDER         FAIR      39  35  86 W5        30.07F
RIVERTON       FAIR      37  33  85 N3        30.09F
CASPER         CLOUDY    37  36  96 S3        30.07F FOG
DOUGLAS        CLOUDY    37  36  96 NW5       30.07F WCI  33

$$
WYZ021-027>030-104>119-180900-
SOUTHERN WYOMING

CITY           SKY/WX    TMP DP  RH WIND       PRES   REMARKS
EVANSTON       FAIR      34  30  85 NE3       30.11F
FORT BRIDGER   SUNNY     36  34  93 S9        30.12F WCI  29
ROCK SPRINGS   CLOUDY    36  34  92 VRB3      30.08F
DIXON          FAIR      29  26  91 NW3       30.05F
RAWLINS        CLOUDY    32  31  96 N9        30.06F WCI  24
SARATOGA       CLOUDY    28  28 100 W3        30.05F FOG
LARAMIE        CLOUDY    27  25  92 E6        30.01S FOG     WCI  20
CHEYENNE       CLOUDY    34  33  96 NW6       30.01F WCI  29
TORRINGTON     RAIN      40  39  97 NW9       30.01F FOG     WCI  34
PINE BLUFFS    LGT RAIN  37  36  93 N14       30.00F WCI  29

$$



USA.gov is the U.S. government's official web portal to all federal, state and local government web resources and services.